Regional Weather Roundup
Issued by NWS

Home | Current Version | Previous Version | Text Only | Print | Product List | Glossary Off
Versions: 1 2 3 4 5 6 7 8 9 10 11 12 13 14 15 16 17 18 19 20 21 22 23 24 25 26 27 28 29 30 31 32 33 34 35 36 37 38 39 40 41 42 43 44 45 46 47 48 49 50

000
ASUS43 KLOT 220412
RWRIL

ILLINOIS REGIONAL WEATHER ROUNDUP
NATIONAL WEATHER SERVICE CHICAGO/ROMEOVILLE IL
1000 PM CST TUE FEB 21 2017

NOTE: "FAIR" INDICATES FEW OR NO CLOUDS BELOW 12,000 FEET WITH NO
SIGNIFICANT WEATHER AND/OR OBSTRUCTIONS TO VISIBILITY.

* THESE STATIONS ARE NOT UNDER NWS QUALITY CONTROL. THEY ALSO MAY NOT
  REPORT WEATHER SUCH AS PRECIPITATION OR FOG.

ILZ001-002-007-009-015-016-024-220500-
NORTHWEST ILLINOIS

CITY           SKY/WX    TMP DP  RH WIND       PRES   REMARKS
MOLINE         CLEAR     49  43  80 S3        29.84F
STERLING*      CLEAR     48  46  93 CALM      29.86F FOG
SAVANNA*       CLEAR     45  41  86 CALM      29.85S
$$

ILZ003-004-008-010-011-017-018-220500-
NORTH CENTRAL ILLINOIS

CITY           SKY/WX    TMP DP  RH WIND       PRES   REMARKS
ROCKFORD       CLEAR     48  42  80 S3        29.87F
FREEPORT*      CLEAR     43  39  86 S8        29.87F
ROCHELLE*      CLEAR     43  43  99 S3        29.87F FOG
DE KALB*       MOCLDY    49  49  99 SW5       29.88S FOG
PERU*          CLEAR     51  50  95 S7        29.87F FOG
$$

ILZ005-006-012>014-019>023-220500-
NORTHEAST ILLINOIS

CITY           SKY/WX    TMP DP  RH WIND       PRES   REMARKS
CHICAGO-OHARE  MOCLDY    55  51  86 S6        29.86F
CHICAGO-MIDWAY MOCLDY    59  52  77 S6        29.87F
AURORA         FOG       47  46  97 NW3       29.86F VSB 1/4
LANSING*       PTCLDY    50  50 100 S6        29.88F
JOLIET*        FOG       53  53 100 CALM      29.87F VSB 1/4
WAUKEGAN       MOCLDY    42  41  96 SW3       29.86F FOG
DUPAGE AIRPORT PTCLDY    50  48  93 CALM      29.86F FOG
KANKAKEE*      PTCLDY    55  53  94 CALM      29.89F
WHEELING       MOCLDY    53  50  89 SE3       29.87F
MORRIS*        CLEAR     54  52  95 CALM      29.86F FOG
ROMEOVILLE*    PTCLDY    52  52 100 S5        29.87F
NORTHERLY ISL    N/A     54  52  93 S7          N/A
$$

LMZ740>746-220500-
SOUTHERN LAKE MICHIGAN

STATION/POSITION SKY/WX   TEMP    WIND        PRES    VSBY  WAVE
                          AIR SEA DIR/SP/G                  HT/PER
                          (F)     (DEG/KT/KT) (MB)    (MI)  (FT/S)
HARRISON CRIB              53     180/ 10/ 10   N/A
BURNHAM HARBOR             56     190/  5/  7   N/A
CALUMET HARBOR             56     180/  3/  4 1011.0F
BURNS HARBOR               57     180/  7/ 11 1012.5F
MICHIGAN CITY              57     140/  8/ 12   N/A
$$

ILZ025>027-034>036-040-047-049-050-058-095>099-220500-
WEST-CENTRAL ILLINOIS

CITY           SKY/WX    TMP DP  RH WIND       PRES   REMARKS
QUINCY         FOG       53  53 100 S6        29.87F VSB 1
GALESBURG*     CLEAR     52  52  99 S3        29.87F FOG
MACOMB*        CLEAR     55  54  97 SW6       29.89F FOG
JACKSONVILLE*  MOCLDY    55  55  97 S6        29.89F FOG
PITTSFIELD*    FOG       54  54 100 S5        29.89F VSB<1/4
$$

ILZ028>032-037-038-041>044-048-051>054-059>061-220500-
CENTRAL ILLINOIS

CITY           SKY/WX    TMP DP  RH WIND       PRES   REMARKS
PONTIAC        MOCLDY    54  53  98 S3        29.89F
BLOOMINGTON    MOCLDY    53  52  96 S8        29.90F FOG
DECATUR        MOCLDY    55  52  89 S7        29.91F
PEORIA         CLOUDY    54  54 100 S6        29.88F
LACON*         PTCLDY    53  53  99 CALM      29.86F
LINCOLN*       PTCLDY    57  57  99 S3        29.89F FOG
SPRINGFIELD    MOCLDY    57  55  93 S8        29.90F FOG
TAYLORVILLE    FOG       52  52 100 SE3       29.91F VSB 1/4
$$

ILZ033-039-045-046-055>057-062-063-220500-
EAST-CENTRAL ILLINOIS

CITY           SKY/WX    TMP DP  RH WIND       PRES   REMARKS
CHAMPAIGN      MOCLDY    52  49  89 S8        29.91F
RANTOUL*       MOCLDY    56  54  92 S3        29.91F
MATTOON        MOCLDY    54  53  97 CALM      29.92S
PARIS*         MOCLDY    50  50  99 CALM      29.94S
$$

ILZ079-100>102-220500-
SOUTHWEST ILLINOIS

CITY           SKY/WX    TMP DP  RH WIND       PRES   REMARKS
ALTON          MOCLDY    52  52 100 CALM      29.91F
BELLEVILLE     CLOUDY    50  50 100 CALM      29.90S FOG
CAHOKIA*       MOCLDY    53  50  89 CALM      29.91S FOG
SPARTA*        CLOUDY    57  53  88 S3        29.92S
$$

ILZ064>066-069>071-074>076-080>082-084>086-088>090-092>094-220500-
SOUTH-CENTRAL ILLINOIS

CITY           SKY/WX    TMP DP  RH WIND       PRES   REMARKS
CARBONDALE     CLOUDY    58  55  90 S3        29.90F
CAIRO*         CLOUDY    56  55  97 CALM      29.92F
EFFINGHAM*     PTCLDY    51  51 100 CALM      29.93F FOG
MARION         CLOUDY    59  57  94 SE3       29.91F
MT. VERNON     CLOUDY    55  53  93 CALM      29.92S
CENTRALIA*     CLOUDY    55  54  94 CALM      29.91S
SALEM*         CLOUDY    56  53  90 CALM      29.91F
METROPOLIS*    LGT RAIN  57  56  94 CALM      29.93S
$$

ILZ067-068-072-073-078-083-087-091-220500-
SOUTHEAST ILLINOIS

CITY           SKY/WX    TMP DP  RH WIND       PRES   REMARKS
LAWRENCEVILLE  CLOUDY    55  55 100 E6        29.91F FOG
FLORA*         CLOUDY    57  55  94 CALM      29.92F
FAIRFIELD*     CLOUDY    56  55  95 CALM      29.90F
HARRISBURG*    CLOUDY    57  55  94 SE5       29.92F
ROBINSON*      CLOUDY    55  53  93 CALM      29.93F
CARMI*         CLOUDY    55  54  95 CALM      29.91F
$$

ABBREVIATIONS USED IN REMARKS
   TC - TEMPERATURE IN CELSIUS
  WCI - WIND CHILL INDEX
   HX - HEAT INDEX
  VSB - VISIBILITY
$$




USA.gov is the U.S. government's official web portal to all federal, state and local government web resources and services.